| time (UTC) | temp C | wind direction | speed KPH | gust KPH | rain 1hr cm | rain 24hr cm | rain mn cm | humidity % | barometer mb |
| 20260906121058 | 24 | 0 | 0.0 | 3.2 | 0.00 | 0.00 | 0.00 | 90 | 1014.0 |
| 20260906120559 | 24 | 0 | 1.6 | 4.8 | 0.00 | 0.00 | 0.00 | 91 | 1014.0 |
| 20260906120105 | 24 | 0 | 1.6 | 4.8 | 0.00 | 0.00 | 0.00 | 91 | 1014.1 |
| 20260906115559 | 24 | 329 | 0.0 | 4.8 | 0.00 | 0.00 | 0.00 | 91 | 1014.3 |
| 20260906115059 | 24 | 329 | 3.2 | 4.8 | 0.00 | 0.00 | 0.00 | 91 | 1014.4 |
| 20260906114600 | 24 | 316 | 0.0 | 4.8 | 0.00 | 0.00 | 0.00 | 92 | 1014.4 |
| 20260906114059 | 24 | 313 | 1.6 | 4.8 | 0.00 | 0.00 | 0.00 | 92 | 1014.4 |
| 20260906113559 | 24 | 0 | 1.6 | 4.8 | 0.00 | 0.00 | 0.00 | 92 | 1014.3 |
| 20260906113104 | 24 | 335 | 0.0 | 6.4 | 0.00 | 0.00 | 0.00 | 93 | 1014.1 |
| 20260906112558 | 24 | 0 | 1.6 | 6.4 | 0.00 | 0.00 | 0.00 | 93 | 1014.1 |
| 20260906112058 | 24 | 304 | 0.0 | 6.4 | 0.00 | 0.00 | 0.00 | 93 | 1014.1 |
| 20260906111618 | 24 | 302 | 0.0 | 6.4 | 0.00 | 0.00 | 0.00 | 93 | 1014.1 |
| 20260906111058 | 24 | 319 | 1.6 | 6.4 | 0.00 | 0.00 | 0.00 | 93 | 1014.0 |
| 20260906110559 | 24 | 350 | 1.6 | 6.4 | 0.00 | 0.00 | 0.00 | 93 | 1013.8 |
| 20260906105559 | 24 | 0 | 1.6 | 4.8 | 0.00 | 0.00 | 0.00 | 93 | 1013.7 |
| 20260906105058 | 24 | 121 | 0.0 | 3.2 | 0.00 | 0.00 | 0.00 | 93 | 1013.6 |
| 20260906104605 | 24 | 0 | 0.0 | 3.2 | 0.00 | 0.00 | 0.00 | 93 | 1013.5 |
| 20260906104058 | 24 | 0 | 0.0 | 3.2 | 0.00 | 0.00 | 0.00 | 93 | 1013.3 |
| 20260906103559 | 24 | 0 | 0.0 | 3.2 | 0.00 | 0.00 | 0.00 | 92 | 1013.2 |
| 20260906103111 | 24 | 283 | 0.0 | 3.2 | 0.00 | 0.00 | 0.00 | 92 | 1013.4 |
| 20260906102602 | 24 | 0 | 0.0 | 3.2 | 0.00 | 0.00 | 0.00 | 92 | 1013.3 |
| 20260906102059 | 24 | 0 | 0.0 | 3.2 | 0.00 | 0.00 | 0.00 | 91 | 1013.2 |
| 20260906101604 | 24 | 0 | 0.0 | 3.2 | 0.00 | 0.00 | 0.00 | 91 | 1013.1 |
| 20260906101058 | 24 | 0 | 0.0 | 3.2 | 0.00 | 0.00 | 0.00 | 91 | 1013.0 |
| 20260906100559 | 24 | 327 | 0.0 | 4.8 | 0.00 | 0.00 | 0.00 | 91 | 1013.0 |
| 20260906095559 | 24 | 336 | 1.6 | 6.4 | 0.00 | 0.00 | 0.00 | 90 | 1013.1 |
| 20260906095059 | 24 | 288 | 1.6 | 6.4 | 0.00 | 0.00 | 0.00 | 89 | 1012.7 |
| 20260906094605 | 25 | 355 | 1.6 | 6.4 | 0.00 | 0.00 | 0.00 | 88 | 1012.9 |
| 20260906094058 | 25 | 335 | 3.2 | 6.4 | 0.00 | 0.00 | 0.00 | 88 | 1012.8 |
| 20260906093559 | 25 | 312 | 0.0 | 3.2 | 0.00 | 0.00 | 0.00 | 88 | 1012.4 |
| 20260906093105 | 25 | 0 | 0.0 | 3.2 | 0.00 | 0.00 | 0.00 | 88 | 1012.3 |
| 20260906092556 | 25 | 0 | 0.0 | 3.2 | 0.00 | 0.00 | 0.00 | 88 | 1012.3 |
| 20260906092057 | 24 | 0 | 0.0 | 0.0 | 0.00 | 0.00 | 0.00 | 89 | 1012.3 |
| 20260906091605 | 24 | 0 | 0.0 | 0.0 | 0.00 | 0.00 | 0.00 | 89 | 1012.3 |
| 20260906091057 | 24 | 0 | 0.0 | 0.0 | 0.00 | 0.00 | 0.00 | 90 | 1012.3 |
| 20260906090557 | 24 | 0 | 0.0 | 0.0 | 0.00 | 0.00 | 0.00 | 90 | 1012.2 |
| 20260906090104 | 24 | 0 | 0.0 | 0.0 | 0.00 | 0.00 | 0.00 | 91 | 1012.2 |
| 20260906085557 | 24 | 0 | 0.0 | 0.0 | 0.00 | 0.00 | 0.00 | 90 | 1012.1 |
| 20260906085059 | 24 | 0 | 0.0 | 0.0 | 0.00 | 0.00 | 0.00 | 91 | 1012.1 |
| 20260906084608 | 24 | 0 | 0.0 | 0.0 | 0.00 | 0.00 | 0.00 | 91 | 1012.2 |
| 20260906084058 | 24 | 0 | 0.0 | 0.0 | 0.00 | 0.00 | 0.00 | 90 | 1012.2 |
| 20260906083559 | 24 | 0 | 0.0 | 0.0 | 0.00 | 0.00 | 0.00 | 91 | 1012.2 |
| 20260906083106 | 24 | 0 | 0.0 | 0.0 | 0.00 | 0.00 | 0.00 | 91 | 1012.2 |
| 20260906082556 | 24 | 0 | 0.0 | 0.0 | 0.00 | 0.00 | 0.00 | 91 | 1012.2 |
| 20260906082057 | 24 | 0 | 0.0 | 0.0 | 0.00 | 0.00 | 0.00 | 91 | 1012.1 |
| 20260906081603 | 24 | 0 | 0.0 | 0.0 | 0.00 | 0.00 | 0.00 | 91 | 1012.2 |
| 20260906081057 | 24 | 0 | 0.0 | 0.0 | 0.00 | 0.00 | 0.00 | 91 | 1012.2 |
| 20260906080600 | 24 | 0 | 0.0 | 0.0 | 0.00 | 0.00 | 0.00 | 91 | 1012.3 |
| 20260906080107 | 24 | 0 | 0.0 | 0.0 | 0.00 | 0.00 | 0.00 | 91 | 1012.3 |
| 20260906075556 | 24 | 0 | 0.0 | 0.0 | 0.00 | 0.00 | 0.00 | 91 | 1012.3 |
| 20260906075057 | 24 | 0 | 0.0 | 0.0 | 0.00 | 0.00 | 0.00 | 91 | 1012.3 |
| 20260906074600 | 24 | 0 | 0.0 | 0.0 | 0.00 | 0.00 | 0.00 | 91 | 1012.3 |
| 20260906074058 | 24 | 0 | 0.0 | 0.0 | 0.00 | 0.00 | 0.00 | 91 | 1012.3 |
| 20260906073556 | 25 | 0 | 0.0 | 0.0 | 0.00 | 0.00 | 0.00 | 91 | 1012.3 |
| 20260906073106 | 25 | 0 | 0.0 | 0.0 | 0.00 | 0.00 | 0.00 | 90 | 1012.3 |
| 20260906072559 | 25 | 0 | 0.0 | 0.0 | 0.00 | 0.00 | 0.00 | 90 | 1012.3 |
| 20260906072056 | 25 | 0 | 0.0 | 0.0 | 0.00 | 0.00 | 0.00 | 90 | 1012.2 |
| 20260906071602 | 25 | 0 | 0.0 | 0.0 | 0.00 | 0.00 | 0.00 | 90 | 1012.1 |
| 20260906071057 | 25 | 0 | 0.0 | 0.0 | 0.00 | 0.00 | 0.00 | 90 | 1012.1 |
| 20260906070559 | 25 | 0 | 0.0 | 0.0 | 0.00 | 0.00 | 0.00 | 90 | 1012.0 |
| 20260906070105 | 25 | 0 | 0.0 | 0.0 | 0.00 | 0.00 | 0.00 | 89 | 1012.1 |
| 20260906065556 | 25 | 0 | 0.0 | 0.0 | 0.00 | 0.00 | 0.00 | 90 | 1012.1 |
| 20260906065059 | 25 | 0 | 0.0 | 0.0 | 0.00 | 0.00 | 0.00 | 89 | 1012.1 |
| 20260906064606 | 25 | 0 | 0.0 | 0.0 | 0.00 | 0.00 | 0.00 | 89 | 1012.1 |
| 20260906064057 | 25 | 0 | 0.0 | 0.0 | 0.00 | 0.00 | 0.00 | 89 | 1012.1 |
| 20260906063558 | 25 | 0 | 0.0 | 0.0 | 0.00 | 0.00 | 0.00 | 89 | 1012.1 |
| 20260906063104 | 25 | 0 | 0.0 | 0.0 | 0.00 | 0.00 | 0.00 | 89 | 1012.1 |
| 20260906062556 | 25 | 0 | 0.0 | 0.0 | 0.00 | 0.00 | 0.00 | 89 | 1012.1 |
| 20260906062056 | 25 | 0 | 0.0 | 0.0 | 0.00 | 0.00 | 0.00 | 89 | 1012.2 |
| 20260906061607 | 25 | 0 | 0.0 | 0.0 | 0.00 | 0.00 | 0.00 | 89 | 1012.2 |
| 20260906061058 | 25 | 0 | 0.0 | 0.0 | 0.00 | 0.00 | 0.00 | 89 | 1012.1 |
| 20260906060556 | 25 | 0 | 0.0 | 0.0 | 0.00 | 0.00 | 0.00 | 88 | 1012.2 |
| 20260906060106 | 25 | 0 | 0.0 | 0.0 | 0.00 | 0.00 | 0.00 | 89 | 1012.2 |
| 20260906055556 | 25 | 0 | 0.0 | 0.0 | 0.00 | 0.00 | 0.00 | 89 | 1012.3 |
| 20260906055056 | 25 | 0 | 0.0 | 0.0 | 0.00 | 0.00 | 0.00 | 89 | 1012.3 |
| 20260906054608 | 25 | 0 | 0.0 | 0.0 | 0.00 | 0.00 | 0.00 | 89 | 1012.3 |
| 20260906054056 | 25 | 0 | 0.0 | 3.2 | 0.00 | 0.00 | 0.00 | 89 | 1012.4 |
| 20260906053559 | 25 | 0 | 0.0 | 4.8 | 0.00 | 0.00 | 0.00 | 88 | 1012.4 |
| 20260906053105 | 25 | 214 | 0.0 | 4.8 | 0.00 | 0.00 | 0.00 | 89 | 1012.5 |
| 20260906052558 | 25 | 217 | 1.6 | 3.2 | 0.00 | 0.00 | 0.00 | 88 | 1012.5 |
| 20260906052057 | 25 | 0 | 0.0 | 0.0 | 0.00 | 0.00 | 0.00 | 88 | 1012.5 |
| 20260906051614 | 25 | 0 | 0.0 | 0.0 | 0.00 | 0.00 | 0.00 | 88 | 1012.5 |
| 20260906051056 | 25 | 0 | 0.0 | 0.0 | 0.00 | 0.00 | 0.00 | 88 | 1012.5 |
| 20260906050556 | 25 | 0 | 0.0 | 0.0 | 0.00 | 0.00 | 0.00 | 88 | 1012.5 |
| 20260906050105 | 25 | 0 | 0.0 | 1.6 | 0.00 | 0.00 | 0.00 | 88 | 1012.5 |
| 20260906045557 | 25 | 0 | 0.0 | 1.6 | 0.00 | 0.00 | 0.00 | 88 | 1012.5 |
| 20260906045100 | 25 | 0 | 0.0 | 0.0 | 0.00 | 0.00 | 0.00 | 88 | 1012.5 |
| 20260906044608 | 25 | 0 | 0.0 | 0.0 | 0.00 | 0.00 | 0.00 | 88 | 1012.5 |
| 20260906044056 | 26 | 0 | 0.0 | 0.0 | 0.00 | 0.00 | 0.00 | 88 | 1012.5 |
| 20260906043556 | 26 | 0 | 0.0 | 0.0 | 0.00 | 0.00 | 0.00 | 87 | 1012.7 |
| 20260906043104 | 26 | 0 | 0.0 | 0.0 | 0.00 | 0.00 | 0.00 | 87 | 1012.6 |
| 20260906042557 | 26 | 0 | 0.0 | 0.0 | 0.00 | 0.00 | 0.00 | 87 | 1012.6 |
| 20260906042056 | 26 | 0 | 0.0 | 0.0 | 0.00 | 0.00 | 0.00 | 87 | 1012.6 |
| 20260906041605 | 26 | 0 | 0.0 | 0.0 | 0.00 | 0.00 | 0.00 | 87 | 1012.6 |
| 20260906041057 | 26 | 0 | 0.0 | 0.0 | 0.00 | 0.00 | 0.00 | 86 | 1012.6 |
| 20260906040556 | 26 | 0 | 0.0 | 0.0 | 0.00 | 0.00 | 0.00 | 86 | 1012.6 |
| 20260906040139 | 26 | 0 | 0.0 | 0.0 | 0.00 | 0.00 | 0.00 | 85 | 1012.5 |
| 20260906035556 | 26 | 0 | 0.0 | 0.0 | 0.00 | 0.00 | 0.00 | 86 | 1012.6 |
| 20260906035056 | 26 | 0 | 0.0 | 0.0 | 0.00 | 0.00 | 0.00 | 85 | 1012.5 |
| 20260906034620 | 26 | 0 | 0.0 | 0.0 | 0.00 | 0.00 | 0.00 | 85 | 1012.5 |
| 20260906034057 | 26 | 0 | 0.0 | 0.0 | 0.00 | 0.00 | 0.00 | 85 | 1012.5 |
| 20260906033556 | 26 | 0 | 0.0 | 0.0 | 0.00 | 0.00 | 0.00 | 85 | 1012.6 |
| 20260906033108 | 26 | 0 | 0.0 | 0.0 | 0.00 | 0.00 | 0.00 | 84 | 1012.6 |
| 20260906032558 | 26 | 0 | 0.0 | 0.0 | 0.00 | 0.00 | 0.00 | 84 | 1012.5 |
| 20260906032056 | 26 | 0 | 0.0 | 0.0 | 0.00 | 0.00 | 0.00 | 84 | 1012.7 |
| 20260906031605 | 26 | 0 | 0.0 | 0.0 | 0.00 | 0.00 | 0.00 | 84 | 1012.7 |
| 20260906031056 | 26 | 0 | 0.0 | 0.0 | 0.00 | 0.00 | 0.00 | 83 | 1012.6 |
| 20260906030556 | 27 | 0 | 0.0 | 0.0 | 0.00 | 0.00 | 0.00 | 83 | 1012.6 |
| 20260906030106 | 27 | 0 | 0.0 | 0.0 | 0.00 | 0.00 | 0.00 | 83 | 1012.6 |
| 20260906025555 | 27 | 0 | 0.0 | 0.0 | 0.00 | 0.00 | 0.00 | 83 | 1012.5 |
| 20260906025059 | 27 | 0 | 0.0 | 0.0 | 0.00 | 0.00 | 0.00 | 82 | 1012.5 |
| 20260906024615 | 27 | 0 | 0.0 | 0.0 | 0.00 | 0.00 | 0.00 | 82 | 1012.4 |
| 20260906024056 | 27 | 0 | 0.0 | 0.0 | 0.00 | 0.00 | 0.00 | 82 | 1012.4 |
| 20260906023559 | 27 | 0 | 0.0 | 0.0 | 0.00 | 0.00 | 0.00 | 82 | 1012.4 |
| 20260906023106 | 27 | 0 | 0.0 | 0.0 | 0.00 | 0.00 | 0.00 | 81 | 1012.3 |
| 20260906022558 | 27 | 0 | 0.0 | 0.0 | 0.00 | 0.00 | 0.00 | 82 | 1012.2 |
| 20260906022056 | 27 | 0 | 0.0 | 0.0 | 0.00 | 0.00 | 0.00 | 80 | 1012.1 |
| 20260906021607 | 27 | 0 | 0.0 | 0.0 | 0.00 | 0.00 | 0.00 | 80 | 1012.1 |
| 20260906021059 | 27 | 0 | 0.0 | 0.0 | 0.00 | 0.00 | 0.00 | 80 | 1012.1 |
| 20260906020556 | 27 | 0 | 0.0 | 0.0 | 0.00 | 0.00 | 0.00 | 80 | 1012.0 |
| 20260906020106 | 28 | 0 | 0.0 | 0.0 | 0.00 | 0.00 | 0.00 | 80 | 1011.9 |
| 20260906015556 | 28 | 0 | 0.0 | 0.0 | 0.00 | 0.00 | 0.00 | 79 | 1011.9 |
| 20260906015058 | 28 | 0 | 0.0 | 0.0 | 0.00 | 0.00 | 0.00 | 78 | 1011.8 |
| 20260906014603 | 28 | 0 | 0.0 | 0.0 | 0.00 | 0.00 | 0.00 | 78 | 1011.6 |
| 20260906014056 | 28 | 0 | 0.0 | 0.0 | 0.00 | 0.00 | 0.00 | 78 | 1011.7 |
| 20260906013556 | 28 | 0 | 0.0 | 0.0 | 0.00 | 0.00 | 0.00 | 77 | 1011.7 |
| 20260906013112 | 28 | 0 | 0.0 | 0.0 | 0.00 | 0.00 | 0.00 | 77 | 1011.7 |
| 20260906012555 | 28 | 0 | 0.0 | 0.0 | 0.00 | 0.00 | 0.00 | 75 | 1011.7 |
| 20260906012056 | 29 | 0 | 0.0 | 0.0 | 0.00 | 0.00 | 0.00 | 76 | 1011.6 |
| 20260906011608 | 29 | 0 | 0.0 | 0.0 | 0.00 | 0.00 | 0.00 | 75 | 1011.7 |
| 20260906011055 | 29 | 0 | 0.0 | 0.0 | 0.00 | 0.00 | 0.00 | 75 | 1011.6 |
| 20260906010556 | 29 | 0 | 0.0 | 0.0 | 0.00 | 0.00 | 0.00 | 75 | 1011.7 |
| 20260906010106 | 30 | 0 | 0.0 | 0.0 | 0.00 | 0.00 | 0.00 | 74 | 1011.6 |
| 20260906005557 | 30 | 0 | 0.0 | 0.0 | 0.00 | 0.00 | 0.00 | 74 | 1011.5 |
| 20260906005058 | 30 | 0 | 0.0 | 0.0 | 0.00 | 0.00 | 0.00 | 73 | 1011.4 |
| 20260906004607 | 30 | 0 | 0.0 | 0.0 | 0.00 | 0.00 | 0.00 | 72 | 1011.4 |
| 20260906004056 | 30 | 0 | 0.0 | 0.0 | 0.00 | 0.00 | 0.00 | 71 | 1011.4 |
| 20260906003556 | 31 | 0 | 0.0 | 0.0 | 0.00 | 0.00 | 0.00 | 71 | 1011.4 |
| 20260906003102 | 31 | 0 | 0.0 | 0.0 | 0.00 | 0.00 | 0.00 | 70 | 1011.4 |
| 20260906002559 | 31 | 0 | 0.0 | 0.0 | 0.00 | 0.00 | 0.00 | 68 | 1011.4 |
| 20260906002056 | 31 | 0 | 0.0 | 0.0 | 0.00 | 0.00 | 0.00 | 69 | 1011.5 |
| 20260906001607 | 32 | 0 | 0.0 | 0.0 | 0.00 | 0.00 | 0.00 | 69 | 1011.5 |
| 20260906001100 | 32 | 0 | 0.0 | 0.0 | 0.00 | 0.00 | 0.00 | 66 | 1011.5 |
| 20260906000559 | 32 | 0 | 0.0 | 0.0 | 0.00 | 0.00 | 0.00 | 66 | 1011.5 |
| 20260906000108 | 32 | 0 | 0.0 | 0.0 | 0.00 | 0.00 | 0.00 | 65 | 1011.6 |
| 20260905235559 | 32 | 0 | 0.0 | 0.0 | 0.00 | 0.00 | 0.00 | 65 | 1011.6 |
| 20260905235056 | 32 | 0 | 0.0 | 0.0 | 0.00 | 0.00 | 0.00 | 65 | 1011.7 |
| 20260905234603 | 33 | 0 | 0.0 | 0.0 | 0.00 | 0.00 | 0.00 | 64 | 1011.7 |
| 20260905234056 | 33 | 0 | 0.0 | 0.0 | 0.00 | 0.00 | 0.00 | 65 | 1011.6 |
| 20260905233557 | 33 | 0 | 0.0 | 0.0 | 0.00 | 0.00 | 0.00 | 63 | 1011.6 |
| 20260905233103 | 33 | 0 | 0.0 | 0.0 | 0.00 | 0.00 | 0.00 | 62 | 1011.6 |
| 20260905232556 | 33 | 0 | 0.0 | 0.0 | 0.00 | 0.00 | 0.00 | 62 | 1011.8 |
| 20260905232058 | 33 | 0 | 0.0 | 0.0 | 0.00 | 0.00 | 0.00 | 62 | 1011.6 |
| 20260905231608 | 33 | 0 | 0.0 | 0.0 | 0.00 | 0.00 | 0.00 | 61 | 1011.5 |
| 20260905231056 | 34 | 0 | 0.0 | 0.0 | 0.00 | 0.00 | 0.00 | 61 | 1011.6 |
| 20260905230556 | 34 | 0 | 0.0 | 0.0 | 0.00 | 0.00 | 0.00 | 60 | 1011.6 |
| 20260905230109 | 34 | 0 | 0.0 | 1.6 | 0.00 | 0.00 | 0.00 | 60 | 1011.6 |
| 20260905225555 | 34 | 0 | 0.0 | 1.6 | 0.00 | 0.00 | 0.00 | 59 | 1011.6 |
| 20260905225056 | 34 | 0 | 0.0 | 1.6 | 0.00 | 0.00 | 0.00 | 58 | 1011.6 |
| 20260905224617 | 34 | 0 | 0.0 | 1.6 | 0.00 | 0.00 | 0.00 | 59 | 1011.6 |
| 20260905224056 | 34 | 0 | 0.0 | 1.6 | 0.00 | 0.00 | 0.00 | 58 | 1011.5 |
| 20260905223555 | 35 | 0 | 0.0 | 3.2 | 0.00 | 0.00 | 0.00 | 57 | 1011.6 |
| 20260905223118 | 35 | 0 | 0.0 | 3.2 | 0.00 | 0.00 | 0.00 | 58 | 1011.7 |
| 20260905222556 | 35 | 0 | 0.0 | 3.2 | 0.00 | 0.00 | 0.00 | 56 | 1011.7 |
| 20260905222056 | 35 | 321 | 0.0 | 6.4 | 0.00 | 0.00 | 0.00 | 56 | 1011.7 |
| 20260905221606 | 35 | 322 | 1.6 | 6.4 | 0.00 | 0.00 | 0.00 | 55 | 1011.7 |
| 20260905221056 | 35 | 271 | 0.0 | 3.2 | 0.00 | 0.00 | 0.00 | 56 | 1011.7 |
| 20260905220556 | 35 | 244 | 0.0 | 3.2 | 0.00 | 0.00 | 0.00 | 55 | 1011.6 |
| 20260905220103 | 35 | 0 | 0.0 | 3.2 | 0.00 | 0.00 | 0.00 | 54 | 1011.7 |
| 20260905215556 | 35 | 0 | 0.0 | 8.0 | 0.00 | 0.00 | 0.00 | 55 | 1011.6 |
| 20260905215100 | 35 | 0 | 0.0 | 8.0 | 0.00 | 0.00 | 0.00 | 54 | 1011.7 |
| 20260905214604 | 36 | 214 | 0.0 | 4.8 | 0.00 | 0.00 | 0.00 | 53 | 1011.6 |
| 20260905214056 | 35 | 236 | 0.0 | 4.8 | 0.00 | 0.00 | 0.00 | 53 | 1011.7 |
| 20260905213556 | 35 | 211 | 0.0 | 4.8 | 0.00 | 0.00 | 0.00 | 53 | 1011.8 |
| 20260905213107 | 36 | 0 | 1.6 | 6.4 | 0.00 | 0.00 | 0.00 | 51 | 1011.8 |
| 20260905212557 | 36 | 0 | 0.0 | 6.4 | 0.00 | 0.00 | 0.00 | 54 | 1011.8 |
| 20260905212057 | 36 | 337 | 1.6 | 6.4 | 0.00 | 0.00 | 0.00 | 53 | 1011.8 |
| 20260905211604 | 36 | 347 | 0.0 | 4.8 | 0.00 | 0.00 | 0.00 | 53 | 1011.9 |
| 20260905211056 | 36 | 0 | 0.0 | 6.4 | 0.00 | 0.00 | 0.00 | 53 | 1011.9 |
| 20260905210556 | 36 | 16 | 1.6 | 6.4 | 0.00 | 0.00 | 0.00 | 53 | 1012.0 |
| 20260905210107 | 36 | 205 | 3.2 | 6.4 | 0.00 | 0.00 | 0.00 | 53 | 1012.0 |
| 20260905205558 | 36 | 296 | 1.6 | 6.4 | 0.00 | 0.00 | 0.00 | 53 | 1012.1 |
| 20260905205056 | 37 | 294 | 0.0 | 4.8 | 0.00 | 0.00 | 0.00 | 52 | 1012.1 |
| 20260905204606 | 37 | 0 | 1.6 | 4.8 | 0.00 | 0.00 | 0.00 | 50 | 1012.2 |
| 20260905204056 | 37 | 0 | 0.0 | 4.8 | 0.00 | 0.00 | 0.00 | 52 | 1012.3 |
| 20260905203557 | 37 | 0 | 0.0 | 4.8 | 0.00 | 0.00 | 0.00 | 50 | 1012.3 |
| 20260905203109 | 37 | 99 | 0.0 | 3.2 | 0.00 | 0.00 | 0.00 | 50 | 1012.3 |
| 20260905202555 | 37 | 0 | 0.0 | 6.4 | 0.00 | 0.00 | 0.00 | 49 | 1012.3 |
| 20260905202056 | 37 | 0 | 0.0 | 6.4 | 0.00 | 0.00 | 0.00 | 50 | 1012.2 |
| 20260905201610 | 37 | 0 | 3.2 | 6.4 | 0.00 | 0.00 | 0.00 | 51 | 1012.4 |
| 20260905201056 | 37 | 0 | 1.6 | 6.4 | 0.00 | 0.00 | 0.00 | 50 | 1012.4 |
| 20260905200556 | 36 | 0 | 0.0 | 6.4 | 0.00 | 0.00 | 0.00 | 54 | 1012.5 |
| 20260905200109 | 36 | 0 | 1.6 | 6.4 | 0.00 | 0.00 | 0.00 | 53 | 1012.7 |
| 20260905195558 | 36 | 346 | 1.6 | 8.0 | 0.00 | 0.00 | 0.00 | 51 | 1012.8 |
| 20260905195055 | 36 | 5 | 0.0 | 8.0 | 0.00 | 0.00 | 0.00 | 52 | 1013.0 |
| 20260905194608 | 36 | 9 | 1.6 | 16.1 | 0.00 | 0.00 | 0.00 | 52 | 1013.0 |
| 20260905194056 | 36 | 334 | 3.2 | 16.1 | 0.00 | 0.00 | 0.00 | 51 | 1013.0 |
| 20260905193555 | 36 | 15 | 0.0 | 12.9 | 0.00 | 0.00 | 0.00 | 52 | 1013.1 |
| 20260905193104 | 36 | 229 | 3.2 | 12.9 | 0.00 | 0.00 | 0.00 | 50 | 1013.2 |
| 20260905192555 | 37 | 327 | 1.6 | 6.4 | 0.00 | 0.00 | 0.00 | 51 | 1013.3 |
| 20260905192055 | 37 | 0 | 0.0 | 6.4 | 0.00 | 0.00 | 0.00 | 52 | 1013.4 |
| 20260905191609 | 36 | 0 | 0.0 | 6.4 | 0.00 | 0.00 | 0.00 | 53 | 1013.5 |
| 20260905191056 | 36 | 86 | 0.0 | 14.5 | 0.00 | 0.00 | 0.00 | 53 | 1013.6 |
| 20260905190555 | 36 | 0 | 0.0 | 14.5 | 0.00 | 0.00 | 0.00 | 54 | 1013.6 |
| 20260905190105 | 35 | 0 | 4.8 | 14.5 | 0.00 | 0.00 | 0.00 | 53 | 1013.7 |
| 20260905185555 | 35 | 345 | 1.6 | 14.5 | 0.00 | 0.00 | 0.00 | 54 | 1013.8 |
| 20260905185055 | 35 | 331 | 1.6 | 14.5 | 0.00 | 0.00 | 0.00 | 54 | 1013.7 |
| 20260905184605 | 35 | 286 | 0.0 | 9.7 | 0.00 | 0.00 | 0.00 | 53 | 1013.7 |
| 20260905184055 | 35 | 0 | 3.2 | 9.7 | 0.00 | 0.00 | 0.00 | 54 | 1013.7 |
| 20260905183556 | 35 | 317 | 1.6 | 9.7 | 0.00 | 0.00 | 0.00 | 53 | 1013.9 |
| 20260905183109 | 36 | 0 | 3.2 | 9.7 | 0.00 | 0.00 | 0.00 | 54 | 1013.8 |
| 20260905182556 | 36 | 338 | 0.0 | 8.0 | 0.00 | 0.00 | 0.00 | 51 | 1013.8 |
| 20260905182056 | 36 | 63 | 0.0 | 8.0 | 0.00 | 0.00 | 0.00 | 53 | 1013.9 |
| 20260905181604 | 36 | 142 | 3.2 | 8.0 | 0.00 | 0.00 | 0.00 | 52 | 1013.9 |
| 20260905181056 | 35 | 213 | 0.0 | 6.4 | 0.00 | 0.00 | 0.00 | 55 | 1014.0 |
| 20260905180559 | 35 | 61 | 1.6 | 9.7 | 0.00 | 0.00 | 0.00 | 54 | 1014.0 |
| 20260905180106 | 35 | 0 | 1.6 | 9.7 | 0.00 | 0.00 | 0.00 | 55 | 1014.1 |
| 20260905175556 | 35 | 297 | 0.0 | 4.8 | 0.00 | 0.00 | 0.00 | 56 | 1014.1 |
| 20260905175057 | 35 | 206 | 0.0 | 4.8 | 0.00 | 0.00 | 0.00 | 55 | 1014.0 |
| 20260905174603 | 35 | 27 | 0.0 | 4.8 | 0.00 | 0.00 | 0.00 | 55 | 1014.1 |
| 20260905174055 | 35 | 300 | 1.6 | 4.8 | 0.00 | 0.00 | 0.00 | 56 | 1014.1 |
| 20260905173556 | 35 | 306 | 0.0 | 4.8 | 0.00 | 0.00 | 0.00 | 56 | 1014.1 |
| 20260905173131 | 35 | 11 | 0.0 | 4.8 | 0.00 | 0.00 | 0.00 | 56 | 1014.1 |
| 20260905172555 | 35 | 13 | 1.6 | 4.8 | 0.00 | 0.00 | 0.00 | 55 | 1014.3 |
| 20260905172055 | 35 | 270 | 0.0 | 6.4 | 0.00 | 0.00 | 0.00 | 57 | 1014.3 |
| 20260905171604 | 35 | 0 | 0.0 | 6.4 | 0.00 | 0.00 | 0.00 | 60 | 1014.4 |
| 20260905171056 | 35 | 34 | 3.2 | 6.4 | 0.00 | 0.00 | 0.00 | 55 | 1014.6 |
| 20260905170556 | 35 | 86 | 1.6 | 6.4 | 0.00 | 0.00 | 0.00 | 55 | 1014.5 |
| 20260905170113 | 35 | 0 | 1.6 | 4.8 | 0.00 | 0.00 | 0.00 | 58 | 1014.5 |
| 20260905165555 | 34 | 101 | 0.0 | 3.2 | 0.00 | 0.00 | 0.00 | 60 | 1014.5 |
| 20260905165056 | 33 | 0 | 0.0 | 3.2 | 0.00 | 0.00 | 0.00 | 59 | 1014.6 |
| 20260905164610 | 33 | 38 | 0.0 | 3.2 | 0.00 | 0.00 | 0.00 | 62 | 1014.6 |
| 20260905164056 | 33 | 83 | 0.0 | 8.0 | 0.00 | 0.00 | 0.00 | 63 | 1014.7 |
| 20260905163555 | 33 | 0 | 3.2 | 8.0 | 0.00 | 0.00 | 0.00 | 62 | 1014.9 |
| 20260905163117 | 33 | 24 | 0.0 | 4.8 | 0.00 | 0.00 | 0.00 | 61 | 1014.9 |
| 20260905162556 | 33 | 0 | 0.0 | 4.8 | 0.00 | 0.00 | 0.00 | 65 | 1015.0 |
| 20260905162056 | 33 | 0 | 0.0 | 4.8 | 0.00 | 0.00 | 0.00 | 63 | 1014.9 |
| 20260905161615 | 32 | 38 | 0.0 | 4.8 | 0.00 | 0.00 | 0.00 | 64 | 1015.0 |
| 20260905161056 | 32 | 0 | 1.6 | 4.8 | 0.00 | 0.00 | 0.00 | 66 | 1015.1 |
| 20260905160556 | 32 | 44 | 1.6 | 4.8 | 0.00 | 0.00 | 0.00 | 66 | 1015.1 |
| 20260905160100 | 32 | 337 | 0.0 | 4.8 | 0.00 | 0.00 | 0.00 | 66 | 1015.2 |
| 20260905155556 | 31 | 0 | 0.0 | 8.0 | 0.00 | 0.00 | 0.00 | 67 | 1015.2 |
| 20260905155056 | 31 | 5 | 1.6 | 8.0 | 0.00 | 0.00 | 0.00 | 70 | 1015.1 |
| 20260905154616 | 31 | 5 | 0.0 | 4.8 | 0.00 | 0.00 | 0.00 | 68 | 1015.1 |
| 20260905154100 | 31 | 5 | 1.6 | 6.4 | 0.00 | 0.00 | 0.00 | 70 | 1015.2 |
| 20260905153555 | 31 | 0 | 1.6 | 6.4 | 0.00 | 0.00 | 0.00 | 73 | 1015.2 |
| 20260905153102 | 30 | 0 | 1.6 | 6.4 | 0.00 | 0.00 | 0.00 | 74 | 1015.3 |
| 20260905152558 | 30 | 308 | 0.0 | 3.2 | 0.00 | 0.00 | 0.00 | 75 | 1015.2 |
| 20260905152056 | 30 | 0 | 0.0 | 3.2 | 0.00 | 0.00 | 0.00 | 75 | 1015.2 |
| 20260905151603 | 30 | 0 | 0.0 | 3.2 | 0.00 | 0.00 | 0.00 | 77 | 1015.2 |
| 20260905151055 | 29 | 330 | 0.0 | 4.8 | 0.00 | 0.00 | 0.00 | 75 | 1015.3 |
| 20260905150554 | 29 | 0 | 0.0 | 4.8 | 0.00 | 0.00 | 0.00 | 76 | 1015.3 |
| 20260905150109 | 29 | 0 | 1.6 | 4.8 | 0.00 | 0.00 | 0.00 | 78 | 1015.3 |
| 20260905145556 | 28 | 339 | 0.0 | 4.8 | 0.00 | 0.00 | 0.00 | 79 | 1015.3 |
| 20260905145055 | 28 | 326 | 1.6 | 4.8 | 0.00 | 0.00 | 0.00 | 78 | 1015.3 |
| 20260905144605 | 28 | 305 | 0.0 | 3.2 | 0.00 | 0.00 | 0.00 | 81 | 1015.3 |
| 20260905144056 | 28 | 0 | 0.0 | 1.6 | 0.00 | 0.00 | 0.00 | 83 | 1015.3 |
| 20260905143556 | 28 | 0 | 0.0 | 3.2 | 0.00 | 0.00 | 0.00 | 82 | 1015.3 |
| 20260905143110 | 27 | 0 | 0.0 | 3.2 | 0.00 | 0.00 | 0.00 | 84 | 1015.4 |
| 20260905142557 | 27 | 230 | 0.0 | 4.8 | 0.00 | 0.00 | 0.00 | 84 | 1015.3 |
| 20260905142055 | 27 | 0 | 0.0 | 4.8 | 0.00 | 0.00 | 0.00 | 85 | 1015.4 |
| 20260905141606 | 27 | 0 | 0.0 | 1.6 | 0.00 | 0.00 | 0.00 | 85 | 1015.3 |
| 20260905141054 | 26 | 0 | 0.0 | 1.6 | 0.00 | 0.00 | 0.00 | 86 | 1015.4 |
| 20260905140555 | 26 | 0 | 0.0 | 1.6 | 0.00 | 0.00 | 0.00 | 87 | 1015.3 |
| 20260905140105 | 26 | 0 | 0.0 | 0.0 | 0.00 | 0.00 | 0.00 | 87 | 1015.3 |
| 20260905135554 | 26 | 0 | 0.0 | 3.2 | 0.00 | 0.00 | 0.00 | 88 | 1015.2 |
| 20260905135057 | 25 | 0 | 0.0 | 3.2 | 0.00 | 0.00 | 0.00 | 88 | 1015.3 |
| 20260905134605 | 25 | 0 | 0.0 | 1.6 | 0.00 | 0.00 | 0.00 | 89 | 1015.2 |
| 20260905134055 | 25 | 215 | 0.0 | 3.2 | 0.00 | 0.00 | 0.00 | 90 | 1015.3 |
| 20260905133556 | 25 | 0 | 0.0 | 3.2 | 0.00 | 0.00 | 0.00 | 90 | 1015.4 |
| 20260905133106 | 25 | 281 | 0.0 | 0.0 | 0.00 | 0.00 | 0.00 | 93 | 1015.3 |
| 20260905132555 | 24 | 0 | 0.0 | 0.0 | 0.00 | 0.00 | 0.00 | 94 | 1015.4 |
| 20260905132057 | 24 | 0 | 0.0 | 0.0 | 0.00 | 0.00 | 0.00 | 94 | 1015.4 |
| 20260905131604 | 24 | 0 | 0.0 | 0.0 | 0.00 | 0.00 | 0.00 | 95 | 1015.5 |
| 20260905131058 | 23 | 0 | 0.0 | 0.0 | 0.00 | 0.00 | 0.00 | 96 | 1015.5 |
| 20260905130556 | 23 | 0 | 0.0 | 0.0 | 0.00 | 0.00 | 0.00 | 96 | 1015.4 |
| 20260905130104 | 23 | 0 | 0.0 | 0.0 | 0.00 | 0.00 | 0.00 | 96 | 1015.4 |
| 20260905125555 | 23 | 0 | 0.0 | 0.0 | 0.00 | 0.00 | 0.00 | 96 | 1015.4 |
| 20260905125056 | 23 | 0 | 0.0 | 0.0 | 0.00 | 0.00 | 0.00 | 96 | 1015.4 |
| 20260905124605 | 23 | 0 | 0.0 | 1.6 | 0.00 | 0.00 | 0.00 | 96 | 1015.4 |
| 20260905124055 | 22 | 0 | 0.0 | 1.6 | 0.00 | 0.00 | 0.00 | 96 | 1015.4 |
| 20260905123555 | 22 | 0 | 0.0 | 1.6 | 0.00 | 0.00 | 0.00 | 96 | 1015.4 |
| 20260905123110 | 22 | 0 | 0.0 | 0.0 | 0.00 | 0.00 | 0.00 | 96 | 1015.4 |
| 20260905122556 | 22 | 0 | 0.0 | 0.0 | 0.00 | 0.00 | 0.00 | 95 | 1015.3 |
| 20260905122057 | 22 | 0 | 0.0 | 0.0 | 0.00 | 0.00 | 0.00 | 95 | 1015.3 |
| 20260905121606 | 22 | 0 | 0.0 | 0.0 | 0.00 | 0.00 | 0.00 | 95 | 1015.3 |